Home > Weather > Lawrence > Past weeks

Flag for USA Past Weather in Lawrence, Kansas, USA — Yesterday and Last 2 Weeks

Now
76 °F

Clear.


Feels Like: 76 °F
Forecast: 78 / 97 °F
Wind: 6 mph from Southeast

Location: Lawrence Municipal Airport

Current Time: Jul 23, 2016 at 6:16:31 AM

Latest Report: Jul 23, 2016 at 5:52 AM


Visibility: 10 mi

Pressure: 29.90 "Hg

Humidity: 91%

Dew Point: 73 °F

Location of LawrenceLocation

Past Weather in Lawrence — Graph

°F

Lawrence Temperature Yesterday

Maximum temperature yesterday: 96 °F (at 4:52 PM)
Minimum temperature yesterday: 77 °F (at 5:52 AM)
Average temperature yesterday: 86 °F

High & Low Weather Summary for the Past Weeks

 TemperatureHumidityPressure
High96 °F (Jul 21, 1:52 PM)100% (Jul 14, 4:52 AM)30.17 "Hg (Jul 14, 4:52 AM)
Low63 °F (Jul 15, 3:52 AM)46% (Jul 8, 2:52 PM)29.68 "Hg (Jul 11, 5:52 PM)
Average81 °F77%29.96 "Hg
* Reported Jul 8 3:52 AM — Jul 23 3:52 AM, Lawrence, Weather by CustomWeather, © 2016

Note: Actual official high and low records may vary slightly from our data, if they occured in-between our weather recording intervals... More about our weather records

Advertising

Lawrence Weather History for the Previous 24 Hours

Scroll right to see more
 ConditionsComfort  
Time TempWeatherWind HumidityBarometerVisibility
3:52 AM
Sat, Jul 23
76 °FClear.9 mph88%29.91 "Hg10 mi
2:52 AM78 °FClear.3 mph82%29.92 "Hg10 mi
1:52 AM77 °FClear.6 mph88%29.92 "Hg10 mi
12:52 AM78 °FClear.7 mph84%29.93 "Hg10 mi
11:52 PM
Fri, Jul 22
80 °FClear.6 mph79%29.93 "Hg10 mi
10:52 PM79 °FClear.6 mph88%29.91 "Hg10 mi
9:52 PM83 °FClear.7 mph77%29.90 "Hg10 mi
8:52 PM84 °FSunny.7 mph80%29.88 "Hg9 mi
7:52 PM88 °FSunny.7 mph70%29.89 "Hg9 mi
6:52 PM92 °FSunny.6 mph56%29.90 "Hg10 mi
5:52 PM96 °FSunny.10 mph49%29.90 "Hg10 mi
4:52 PM96 °FSunny.13 mph58%29.91 "Hg10 mi
3:52 PM95 °FSunny.15 mph60%29.92 "Hg10 mi
2:52 PM94 °FSunny.17 mph62%29.94 "Hg10 mi
1:52 PM95 °FSunny.16 mph56%29.97 "Hg10 mi
12:52 PM95 °FSunny.13 mph51%29.99 "Hg10 mi
11:52 AM94 °FSunny.12 mph52%29.99 "Hg10 mi
10:52 AM92 °FSunny.12 mph56%29.98 "Hg10 mi
9:52 AM89 °FSunny.10 mph59%29.98 "Hg10 mi
8:52 AM86 °FSunny.6 mph65%29.98 "Hg10 mi
7:52 AM81 °FSunny.5 mph82%29.98 "Hg10 mi
6:52 AM79 °FClear.6 mph79%29.97 "Hg10 mi
Weather by CustomWeather, © 2016

See weather overviewHow to use our weather pages